EW9240 Weather Reports


Display with metric or nautical units.
time (UTC)temp
F
wind
direction
speed
MPH
gust
MPH
rain 1hr
in
rain 24hr
in
rain mn
in
humidity
%
barometer
mb
20260502151606 51 277 0.0 1.0 0.00 0.00 0.00 87 1014.3
20260502123043 50 302 0.0 0.0 0.00 0.00 0.00 88 1014.1
20260502121527 50 304 0.0 1.0 0.00 0.00 0.00 88 1014.0
20260502114636 50 265 0.0 1.0 0.00 0.00 0.00 88 1014.1
20260502113046 50 277 0.0 3.0 0.00 0.00 0.00 88 1013.7
20260502111532 50 276 0.0 1.0 0.00 0.00 0.00 88 1013.8
20260502110013 50 270 0.0 2.0 0.00 0.00 0.00 88 1014.0
20260502104559 50 271 1.0 2.0 0.00 0.00 0.00 88 1013.9
20260502103045 51 276 0.0 2.0 0.00 0.00 0.00 88 1014.1
20260502101528 51 290 1.0 5.0 0.00 0.00 0.00 88 1013.7
20260502091514 51 240 0.0 0.0 0.00 0.00 0.00 88 1015.2
20260502090104 51 100 0.0 3.0 0.00 0.00 0.00 87 1015.4
20260502071522 53 277 0.0 2.0 0.00 0.00 0.00 81 1014.9
20260502070046 53 262 1.0 3.0 0.00 0.00 0.00 80 1014.8
20260502064540 53 269 2.0 4.0 0.00 0.00 0.00 80 1014.8
20260502063020 54 252 1.0 3.0 0.00 0.00 0.00 79 1014.9
20260502061551 54 269 0.0 2.0 0.00 0.00 0.00 78 1014.9
20260502060029 55 245 0.0 6.0 0.00 0.00 0.00 77 1014.7
20260502054508 56 282 0.0 5.0 0.00 0.00 0.00 75 1014.6
20260502053102 57 264 0.0 4.0 0.00 0.00 0.00 74 1014.6
20260502051546 57 261 2.0 5.0 0.00 0.00 0.00 73 1014.4
20260502050045 58 262 1.0 7.0 0.00 0.00 0.00 74 1014.1
20260502044520 59 278 2.0 5.0 0.00 0.00 0.00 73 1014.0
20260502043003 60 287 2.0 5.0 0.00 0.00 0.00 73 1014.0
20260502041602 61 283 0.0 5.0 0.00 0.00 0.00 72 1013.8
20260502040042 62 278 1.0 3.0 0.00 0.00 0.00 71 1013.6
20260502034559 62 288 1.0 5.0 0.00 0.00 0.00 70 1013.2
20260502033043 64 301 2.0 7.0 0.00 0.00 0.00 69 1012.9
20260502031529 65 295 2.0 5.0 0.00 0.00 0.00 68 1012.8
20260502030016 67 295 2.0 7.0 0.00 0.00 0.00 66 1012.5
20260502024605 68 273 2.0 5.0 0.00 0.00 0.00 63 1012.3
20260502023056 69 280 2.0 5.0 0.00 0.00 0.00 56 1012.1
20260502021536 70 273 0.0 3.0 0.00 0.00 0.00 52 1011.9
20260502020021 71 304 2.0 8.0 0.00 0.00 0.00 53 1011.9
20260502014506 71 290 3.0 7.0 0.00 0.00 0.00 56 1011.9
20260502013100 71 274 2.0 8.0 0.00 0.00 0.00 58 1011.9
20260502011505 72 265 1.0 5.0 0.00 0.00 0.00 59 1011.7
20260502010108 72 283 3.0 7.0 0.00 0.00 0.00 54 1011.8
20260502004544 73 281 0.0 7.0 0.00 0.00 0.00 52 1011.8
20260502003025 73 286 2.0 9.0 0.00 0.00 0.00 51 1011.6
20260502001505 73 283 1.0 6.0 0.00 0.00 0.00 50 1011.7
20260502000056 73 281 0.0 4.0 0.00 0.00 0.00 52 1011.6
20260501234545 72 136 0.0 3.0 0.00 0.00 0.00 54 1011.7
20260501233006 72 290 1.0 5.0 0.00 0.00 0.00 54 1011.8
20260501231612 72 322 1.0 6.0 0.00 0.00 0.00 53 1012.0
20260501230038 72 306 0.0 4.0 0.00 0.00 0.00 54 1012.1
20260501224520 72 190 0.0 4.0 0.00 0.00 0.00 56 1012.3
20260501223004 71 49 0.0 4.0 0.00 0.00 0.00 55 1012.5
20260501221554 71 314 1.0 4.0 0.00 0.00 0.00 56 1012.7
20260501220045 71 356 0.0 4.0 0.00 0.00 0.00 55 1012.9
20260501214529 70 218 0.0 3.0 0.00 0.00 0.00 59 1013.2
20260501213014 71 302 0.0 3.0 0.00 0.00 0.00 56 1013.3
20260501211522 70 143 0.0 3.0 0.00 0.00 0.00 57 1013.4
20260501210006 69 283 2.0 4.0 0.00 0.00 0.00 58 1013.6
20260501204608 69 265 0.0 4.0 0.00 0.00 0.00 59 1013.7
20260501203043 69 252 1.0 4.0 0.00 0.00 0.00 59 1013.7
20260501201537 68 277 1.0 5.0 0.00 0.00 0.00 61 1013.9
20260501200018 68 266 1.0 4.0 0.00 0.00 0.00 62 1013.9
20260501194606 68 167 0.0 5.0 0.00 0.00 0.00 62 1014.1
20260501193053 66 271 1.0 6.0 0.00 0.00 0.00 63 1014.2
20260501191643 66 25 0.0 4.0 0.00 0.00 0.00 64 1014.2
20260501190047 66 358 1.0 4.0 0.00 0.00 0.00 64 1014.5
20260501184559 65 231 0.0 3.0 0.00 0.00 0.00 65 1014.6
20260501183051 65 130 0.0 5.0 0.00 0.00 0.00 65 1014.6
20260501181527 64 219 0.0 3.0 0.00 0.00 0.00 66 1014.7
20260501180040 64 184 0.0 4.0 0.00 0.00 0.00 67 1014.8
20260501174526 64 131 1.0 6.0 0.00 0.00 0.00 67 1014.7
20260501173011 63 216 0.0 3.0 0.00 0.00 0.00 69 1014.7
20260501171600 62 129 0.0 2.0 0.00 0.00 0.00 70 1014.9
20260501170040 61 135 0.0 3.0 0.00 0.00 0.00 70 1014.8
20260501164525 61 145 0.0 1.0 0.00 0.00 0.00 71 1015.0
20260501163007 61 278 0.0 2.0 0.00 0.00 0.00 71 1015.1
20260501161557 60 290 0.0 3.0 0.00 0.00 0.00 71 1015.1